Domov               UVHVVR             MKGP            O straneh              
ZDRAVSTVENO VARSTVO RASTLIN
  MREŽA AGROMET. POSTAJ
 ► PROGNOSTIČNA OBVESTILA
AGROMETEOROLOŠKI PODATKI -
ARSO
OBVLADOVANJE TVEGANJ ZARADI
NEUGODNIH VREMENSKIH RAZMER
  ► NARAVNE NESREČE
  ► SUŠA/MOČA
  ► NAMAKANJE
  ► ŽLED (gozdarstvo)
KARTOGRAFSKI PRIKAZI
SPLETNE POVEZAVE
PROJEKTI IN PUBLIKACIJE

AGROMETEOROLOŠKA MREŽA: VREMENSKE POSTAJE IN FENOLOŠKA OPAZOVANJA

Pregled podatkov za lokacijo Sremič, meteorološka postaja 49592

Pregled senzorjev na lokaciji

ID Ime Zadnja
vrednost
Datum
zadnje
spremembe
Tip
senzorja
3947 Omočenost lista (U) 2 U 13.11.2018 03:30 A730WET
3948 Padavine (mm) 0 mm 13.11.2018 03:30 Generic 0.2 mm
3945 Relativna vlaga 2 m (% RH) 78,89 % RH 13.11.2018 03:30 Generic 0 - 100 %
3946 Temperatura 2 m (°C) 11,92 °C 13.11.2018 03:30 Generic -40 - +60 °C

Pregled podatkov zadnjih 24 ur

Zap.
št.
Datum in čas Sremič
Omočenost
lista
Padavine Relativna
vlaga
2
m
Temperatura
2
m
1 13.11.2018 03:30 2 0 78,9 11,9
2 13.11.2018 03:00 2 0 78,8 11,9
3 13.11.2018 02:30 3 0 78,4 11,9
4 13.11.2018 02:00 2 0 77,5 11,9
5 13.11.2018 01:30 1 0 75,9 12,2
6 13.11.2018 01:00 1 0 74,4 12,3
7 13.11.2018 00:30 1 0 73,8 12,5
8 13.11.2018 00:00 1 0 73,3 12,6
9 12.11.2018 23:30 1 0 72,5 12,8
10 12.11.2018 23:00 1 0 70,9 13,1
11 12.11.2018 22:30 1 0 72 13
12 12.11.2018 22:00 1 0 71,7 13,1
13 12.11.2018 21:30 0 0 70,5 13,5
14 12.11.2018 21:00 0 0 69,9 13,6
15 12.11.2018 20:30 0 0 69,5 13,7
16 12.11.2018 20:00 1 0 70,6 13,7
17 12.11.2018 19:30 0 0 69,7 13,9
18 12.11.2018 19:00 0 0 69 14,1
19 12.11.2018 18:30 0 0 68,4 14,3
20 12.11.2018 18:00 0 0 67,5 14,5
21 12.11.2018 17:30 0 0 66,4 14,9
22 12.11.2018 17:00 0 0 64,9 15,2
23 12.11.2018 16:30 0 0 62,5 15,7
24 12.11.2018 16:00 0 0 59 16,6
25 12.11.2018 15:30 0 0 57,3 16,9
26 12.11.2018 15:00 0 0 56,9 17,7
27 12.11.2018 14:30 0 0 59,1 16,7
28 12.11.2018 14:00 0 0 56,4 17,3
29 12.11.2018 13:30 0 0 57,1 17,1
30 12.11.2018 13:00 0 0 57,3 17,6
31 12.11.2018 12:30 0 0 59,5 17,3
32 12.11.2018 12:00 0 0 63,1 16,2
33 12.11.2018 11:30 0 0 62,9 16,1
34 12.11.2018 11:00 0 0 61,4 16,6
35 12.11.2018 10:30 0 0 63,7 15,8
36 12.11.2018 10:00 0 0 65,2 15
37 12.11.2018 09:30 0 0 65,1 14,8
38 12.11.2018 09:00 0 0 66,5 14,4
39 12.11.2018 08:30 0 0 67,6 14,1
40 12.11.2018 08:00 0 0 69,5 13,7
41 12.11.2018 07:30 0 0 69 13,7
42 12.11.2018 07:00 0 0 68,9 13,6
43 12.11.2018 06:30 0 0 68,6 13,7
44 12.11.2018 06:00 0 0 69,8 13,6
45 12.11.2018 05:30 0 0 70,3 13,5
46 12.11.2018 05:00 0 0 71 13
47 12.11.2018 04:30 0 0 72 12,8
48 12.11.2018 04:00 1 0 72,8 12,6
© 2011 Ministrstvo za kmetijstvo, gozdarstvo in prehrano. Vse pravice pridržane.